STARLINK-2352 (47892 NORAD) Tracking and Keplerian Element Data

This shows tracking and keplerian element data for the satellite.

Feedback or suggestion? Click here.




ElementValue
Catalog47892
NameSTARLINK-2352
Epoch Orbit196
Epoch Day173.91668981
Epoch Year2021
RAAN86.4572
Inclination53.0486
Eccentricity0.000148
Argument of Perigee66.1566
Mean Anonmoly270.6113
Mean Motion15.06394396
Decay Rate-1.83E-06
L11 47892U 21021AJ 21173.91668981 -.00000183 00000-0 66257-5 0 9992
L22 47892 53.0486 86.4572 0001480 66.1566 270.6113 15.06394396 1965

Live tracking and technical data element details for STARLINK-2352 (NORAD 47892). STARLINK-2352 can be tracked NOW for your location showing map with azimuth and elevation plus other details from your city location.

Track the satellite on the map from your city or location and see movement details for azimuth, elevation, latitude, longitude, range, height, and movement on the map or in text.







IsCatalogInMostPopularTable: catalog: 47892, numindb: 44
Update: records affected: 1



GetName: 47892 STARLINK-2352

Hit Count: updated at: Thu, 24 Jun 2021 03:18:12 GMT